Terminal Aerodrome Forecast
Issued by NWS

Home | Current Version | Previous Version | Text Only | Print | Product List | Glossary On
Versions: 1 2 3 4 5 6 7 8 9 10 11 12 13 14 15 16 17 18 19 20
000
FTUS45 KTFX 280500
TAFBZN
TAF
KBZN 280520Z 2806/2906 VRB06KT P6SM SCT100 OVC150 WS020/26035KT
     FM281800 22011KT P6SM BKN100
     FM290300 25015KT P6SM VCSH SCT050 BKN080=

USA.gov is the U.S. government's official web portal to all federal, state and local government web resources and services.